Temperature
1 1 1 1 1 1 1 1 1 1 1 2 2 3 3 3 3 3 3 3 3 3 3 3 3 3 3 3 3 3 3 3 3 3 3 3 3 3
1 1 1 1 1 1 1 1 0 0 0 1 2 2 2 2 2 2 2 2 2 2 2 2 2 2 2 2 2 2 2 2 2 2 2 2 2 2
0 -0 -0 -0 0 0 -0 -0 -0 -0 -0 0 0 1 1 1 1 1 1 1 1 1 1 1 1 1 1 1 1 1 1 1 1 1 2 2 2 2
-1 -1 -1 -1 -1 -1 -1 -1 -1 -1 -1 -1 -1 -0 0 0 0 0 0 0 0 1 1 1 0 0 1 1 0 1 1 1 1 1 1 1 1 1
-1 -1 -1 -1 -1 -1 -2 -2 -2 -2 -2 -2 -1 -1 -1 -1 -1 -1 -1 -1 -0 -0 -0 -0 -0 -0 -0 -0 -0 -0 -0 -0 -0 -0 -0 0 0 0
-2 -2 -2 -2 -2 -2 -2 -2 -2 -2 -3 -3 -3 -2 -2 -2 -2 -2 -2 -1 -1 -1 -1 -1 -1 -1 -1 -1 -1 -1 -1 -1 -1 -1 -1 -0 -0 -0
-3 -3 -3 -2 -3 -3 -3 -3 -3 -3 -3 -3 -3 -3 -3 -3 -3 -3 -3 -3 -2 -2 -2 -2 -2 -2 -2 -2 -2 -2 -1 -1 -1 -1 -1 -1 -1 -1
-4 -4 -4 -3 -3 -3 -3 -3 -4 -4 -4 -4 -4 -4 -4 -4 -4 -4 -4 -4 -4 -3 -3 -3 -3 -3 -3 -3 -3 -3 -2 -2 -2 -2 -2 -2 -2 -2
-5 -5 -4 -4 -4 -4 -4 -4 -4 -4 -4 -4 -4 -4 -4 -4 -4 -4 -4 -4 -4 -4 -4 -4 -3 -4 -3 -3 -3 -3 -3 -3 -3 -3 -3 -3 -3 -3
-6 -5 -5 -5 -5 -5 -5 -5 -5 -5 -5 -5 -5 -5 -5 -5 -5 -5 -5 -5 -5 -5 -5 -5 -5 -4 -4 -4 -4 -4 -4 -4 -4 -4 -4 -4 -4 -4
-6 -6 -6 -6 -6 -6 -6 -6 -5 -5 -5 -5 -6 -5 -5 -5 -5 -5 -6 -6 -6 -6 -6 -6 -6 -6 -5 -5 -5 -5 -5 -5 -5 -5 -5 -5 -5 -5
-7 -7 -7 -7 -6 -6 -6 -6 -6 -6 -6 -6 -6 -6 -6 -6 -6 -6 -6 -6 -7 -7 -6 -7 -7 -7 -7 -6 -6 -6 -6 -6 -6 -6 -6 -6 -5 -5
-8 -7 -7 -7 -7 -7 -7 -7 -7 -7 -7 -7 -7 -7 -7 -7 -6 -7 -7 -7 -7 -7 -7 -7 -8 -8 -8 -8 -7 -7 -7 -7 -7 -6 -6 -6 -6 -6
-8 -8 -8 -8 -8 -8 -8 -8 -8 -8 -8 -8 -8 -8 -7 -7 -7 -7 -7 -8 -8 -8 -8 -8 -8 -8 -8 -9 -9 -8 -8 -8 -8 -7 -7 -7 -7 -7
-9 -9 -9 -9 -9 -9 -8 -8 -8 -8 -8 -8 -8 -8 -8 -8 -8 -8 -8 -8 -8 -8 -8 -8 -9 -9 -9 -9 -9 -9 -9 -8 -8 -8 -8 -8 -8 -7
-10 -10 -10 -10 -9 -9 -9 -9 -9 -9 -9 -9 -9 -9 -9 -9 -9 -9 -9 -9 -9 -9 -9 -9 -9 -9 -9 -9 -10 -9 -9 -9 -9 -9 -9 -9 -9 -8
-10 -10 -10 -10 -10 -10 -10 -10 -10 -9 -9 -9 -9 -9 -9 -9 -9 -9 -9 -10 -10 -10 -10 -9 -10 -10 -10 -10 -10 -10 -10 -10 -10 -10 -10 -10 -9 -9
-11 -11 -11 -11 -11 -10 -10 -10 -10 -10 -10 -10 -10 -10 -10 -10 -10 -10 -10 -10 -10 -10 -10 -10 -10 -10 -10 -10 -10 -10 -10 -10 -10 -10 -11 -11 -10 -9
-12 -12 -11 -11 -11 -11 -11 -11 -11 -11 -11 -11 -11 -11 -11 -11 -11 -11 -11 -11 -11 -11 -11 -11 -11 -11 -12 -12 -11 -11 -11 -11 -11 -11 -11 -11 -11 -10
-12 -12 -12 -12 -12 -12 -12 -12 -12 -12 -12 -12 -12 -12 -12 -12 -12 -12 -12 -12 -12 -12 -11 -11 -11 -12 -12 -12 -12 -11 -11 -12 -12 -12 -11 -11 -11 -11
-13 -13 -13 -13 -13 -13 -13 -12 -12 -12 -12 -12 -12 -12 -12 -12 -12 -12 -12 -12 -12 -12 -12 -12 -12 -12 -12 -12 -13 -12 -11 -12 -12 -12 -12 -12 -12 -11
-14 -14 -14 -14 -13 -13 -13 -13 -13 -13 -13 -13 -13 -13 -13 -13 -13 -13 -13 -13 -13 -12 -12 -12 -12 -12 -13 -13 -13 -13 -12 -12 -12 -12 -12 -12 -12 -12
-14 -14 -14 -14 -14 -14 -14 -14 -14 -14 -14 -14 -14 -13 -13 -13 -13 -13 -13 -13 -13 -13 -13 -13 -13 -13 -13 -13 -13 -13 -13 -13 -13 -12 -12 -12 -12 -12
Wind_Speed
3 3 3 3 2 2 2 2 3 4 5 4 2 2 4 5 6 6 5 8 8 8 7 7 7 7 7 7 7 7 8 7 7 7 7 7 8 8
2 3 3 2 2 2 2 2 2 4 5 3 3 2 3 5 7 6 7 8 9 9 9 8 8 8 9 9 8 8 8 8 9 8 9 9 9 9
3 4 4 3 3 3 2 2 2 3 6 5 3 2 2 3 5 6 7 7 8 10 10 10 10 10 10 11 11 10 10 10 10 10 10 10 10 10
5 4 5 4 4 3 3 3 3 3 4 6 4 3 4 4 4 4 5 6 7 9 10 11 11 11 11 12 12 12 11 11 11 11 11 11 11 11
5 5 5 5 5 4 4 4 4 4 4 5 5 3 3 2 3 3 4 5 7 8 9 10 11 12 12 12 11 11 12 12 12 12 12 12 12 12
5 5 5 5 6 6 5 5 4 4 4 4 5 4 3 2 3 3 4 3 4 6 8 9 10 11 11 12 11 11 12 13 13 13 13 13 13 13
4 5 5 7 8 7 6 6 6 5 5 5 5 4 3 2 3 3 4 3 4 4 4 5 6 7 9 11 11 12 12 13 13 14 13 13 13 13
5 5 5 6 9 10 11 10 9 7 7 6 6 6 6 5 3 3 3 3 4 3 3 5 5 5 7 9 11 12 13 13 13 13 13 14 13 14
6 5 5 6 8 6 8 10 10 12 12 8 8 8 7 6 5 5 5 5 6 4 3 6 4 6 7 10 12 13 13 13 13 13 13 13 13 14
6 6 6 6 7 7 6 6 7 8 9 8 7 7 7 6 7 7 6 5 4 4 4 5 4 5 6 8 12 13 13 12 13 13 13 13 14 14
6 6 6 6 10 11 7 7 7 7 10 12 13 12 11 11 8 4 4 4 5 4 3 3 4 4 4 5 10 12 12 13 13 14 14 15 15 14
5 6 9 9 11 11 7 6 8 7 6 7 8 9 8 9 10 7 6 6 4 4 3 2 2 2 4 4 4 6 8 11 13 14 14 14 14 10
6 5 6 11 11 12 10 7 9 8 5 6 5 5 5 5 6 6 6 6 6 5 4 3 3 3 4 5 4 5 6 7 8 10 12 14 14 11
6 5 6 10 11 11 9 9 11 9 4 5 5 5 5 5 5 5 6 8 7 7 7 5 4 5 5 6 6 4 4 6 6 7 7 11 12 13
6 8 9 11 10 8 10 11 8 5 4 5 5 5 5 5 4 4 4 5 6 7 8 8 6 5 6 6 6 6 6 5 5 5 5 6 7 7
6 8 10 11 9 8 8 6 5 4 4 5 5 4 3 3 4 4 4 4 4 5 6 8 8 6 6 7 6 7 6 5 5 5 6 6 7 8
5 4 4 4 4 4 3 4 4 3 4 3 3 4 4 4 4 4 4 4 5 6 4 3 5 6 6 6 7 7 6 6 6 6 5 7 7 7
6 4 5 4 4 4 4 4 3 4 3 3 3 4 4 4 4 4 4 5 5 5 5 4 3 3 3 4 6 6 6 5 5 5 5 7 8 7
5 4 4 4 4 4 4 4 4 3 3 3 4 4 4 4 4 4 4 5 5 5 5 4 4 4 5 6 5 6 5 5 5 6 6 6 8 8
4 4 4 4 4 4 4 3 3 3 2 3 3 3 4 4 4 5 5 5 5 5 5 4 5 5 6 6 5 6 9 6 5 6 6 6 6 9
4 4 4 3 3 3 3 3 3 3 3 3 3 3 3 4 4 5 5 7 6 5 6 6 6 6 3 2 3 4 5 7 7 6 5 5 6 6
3 3 3 3 3 3 3 3 3 3 3 3 3 3 4 4 5 5 5 5 5 5 5 5 3 3 2 4 5 5 5 5 6 8 8 8 5 5
3 3 3 3 3 3 3 3 3 3 3 3 3 3 3 4 4 5 5 5 5 5 4 4 3 2 3 4 4 4 5 5 4 4 5 7 9 10
Wind_Direction
231 229 235 241 235 238 236 219 223 254 256 242 227 222 229 231 239 238 240 248 249 250 254 257 260 260 266 274 270 261 256 256 261 264 267 270 273 275
235 234 243 249 248 242 236 242 239 238 252 249 251 249 243 247 246 246 246 251 251 252 254 255 259 261 260 262 263 260 259 259 258 258 264 267 271 275
241 237 242 245 242 246 244 239 249 248 258 269 272 247 229 238 253 250 246 249 251 251 251 254 256 258 259 258 255 253 254 255 256 258 261 263 267 271
239 241 243 243 239 243 242 244 246 248 255 269 275 245 236 233 234 241 255 255 257 258 257 256 256 258 260 260 258 256 255 255 256 257 258 261 265 267
236 238 243 238 239 241 239 242 247 255 254 260 273 257 243 238 241 254 253 254 260 257 259 260 259 260 260 261 262 261 259 257 256 255 257 259 263 266
248 242 241 238 239 234 237 236 240 244 247 250 266 259 246 238 223 240 258 244 257 259 261 265 265 264 261 261 262 262 262 260 257 254 255 258 261 264
253 251 249 249 251 247 243 235 232 236 241 248 261 261 250 237 234 238 250 259 261 247 255 261 259 258 260 260 261 261 262 262 261 259 258 260 261 264
250 252 254 254 256 256 257 253 243 238 237 241 252 249 251 245 243 241 245 260 264 239 241 264 248 254 253 250 259 264 265 267 266 265 265 265 265 265
250 250 259 259 265 254 260 261 258 255 249 242 245 244 246 237 233 240 238 242 258 253 252 265 249 254 252 255 262 265 270 270 268 268 269 270 268 267
251 249 249 253 256 256 252 255 253 254 253 249 246 249 244 236 226 234 241 255 272 252 229 261 261 259 263 255 259 261 265 269 270 271 272 273 274 272
258 254 251 247 259 261 255 253 258 259 262 256 257 258 257 257 249 234 231 242 263 258 232 242 263 276 273 262 254 257 262 266 271 274 275 274 274 274
260 259 259 258 262 262 250 244 252 256 258 263 264 263 260 255 249 232 220 230 248 256 227 225 256 288 282 266 247 253 265 269 271 274 276 278 278 276
258 258 259 264 265 266 264 251 256 260 254 249 247 250 249 242 240 240 233 226 232 246 232 230 247 256 260 276 276 259 254 264 268 270 273 277 280 277
261 263 262 268 270 272 270 267 266 265 252 246 247 245 244 245 243 242 246 246 244 248 234 228 244 244 256 271 276 267 254 257 262 269 268 274 278 279
266 270 274 275 275 274 273 270 265 257 244 239 243 247 245 245 250 251 255 252 257 252 241 233 237 243 245 259 267 272 279 274 257 257 262 265 268 270
274 274 278 279 276 273 272 271 259 249 243 243 245 251 252 245 245 242 246 243 253 263 248 237 233 234 248 257 260 266 265 260 262 266 268 269 266 259
278 274 274 275 261 261 266 264 254 250 252 250 251 254 256 254 256 249 242 241 247 254 260 259 244 243 247 248 255 257 260 266 263 265 270 272 270 261
283 273 270 267 264 265 264 261 257 252 248 252 254 255 256 255 257 255 248 240 246 252 254 249 250 283 290 270 240 245 252 259 268 267 268 269 274 269
278 269 265 263 264 265 262 260 259 259 256 249 251 256 258 257 256 253 250 250 251 254 254 245 233 234 256 273 271 249 251 262 266 266 263 263 270 272
272 268 265 264 263 262 262 264 267 268 262 257 258 256 254 253 253 253 249 248 255 258 259 252 237 231 238 254 269 276 262 251 253 262 269 274 276 278
278 277 273 270 271 267 262 260 259 261 262 260 259 259 259 259 257 256 252 257 260 258 255 259 257 267 271 264 270 276 275 265 265 266 267 276 284 284
274 275 278 277 274 270 266 262 261 261 260 258 257 256 255 255 257 258 257 253 254 256 262 266 265 265 246 246 261 273 282 289 292 292 279 267 264 262
273 270 273 273 268 269 269 267 264 262 259 257 258 257 256 260 261 260 259 256 254 254 260 264 263 260 256 253 260 269 274 286 301 306 299 293 291 285
Height
1496 1498 1499 1500 1502 1503 1503 1504 1505 1503 1502 1503 1504 1505 1506 1507 1508 1509 1510 1510 1511 1512 1513 1513 1514 1514 1515 1515 1515 1515 1516 1517 1517 1518 1519 1519 1520 1520
1492 1493 1494 1495 1496 1497 1498 1499 1499 1499 1498 1497 1499 1500 1500 1501 1502 1503 1504 1504 1506 1506 1507 1507 1508 1508 1509 1510 1510 1511 1511 1511 1512 1512 1513 1513 1514 1514
1486 1487 1488 1490 1491 1492 1493 1493 1494 1494 1493 1492 1494 1495 1495 1496 1496 1497 1498 1498 1499 1500 1500 1501 1502 1502 1503 1503 1504 1504 1505 1505 1506 1506 1506 1507 1507 1508
1481 1482 1483 1484 1485 1486 1487 1487 1488 1489 1489 1487 1487 1488 1489 1490 1490 1491 1492 1492 1493 1494 1494 1495 1495 1496 1496 1497 1497 1498 1498 1499 1499 1499 1500 1500 1501 1501
1475 1476 1477 1478 1479 1480 1481 1482 1482 1483 1483 1483 1482 1483 1483 1483 1484 1485 1486 1486 1487 1487 1488 1488 1489 1489 1489 1490 1490 1491 1491 1492 1493 1493 1493 1493 1494 1494
1469 1470 1471 1472 1473 1474 1475 1476 1476 1477 1477 1477 1477 1477 1477 1477 1478 1478 1478 1479 1480 1481 1481 1481 1482 1482 1483 1483 1483 1484 1484 1485 1486 1486 1486 1486 1487 1487
1463 1464 1465 1466 1467 1468 1469 1469 1470 1470 1471 1471 1471 1471 1471 1471 1472 1472 1472 1473 1473 1474 1474 1474 1475 1475 1476 1476 1476 1477 1477 1478 1478 1479 1479 1479 1479 1479
1457 1458 1459 1460 1461 1462 1463 1464 1464 1465 1464 1465 1465 1465 1464 1466 1466 1466 1467 1466 1465 1467 1467 1467 1468 1467 1468 1469 1469 1470 1470 1471 1471 1471 1471 1471 1472 1472
1451 1452 1453 1454 1455 1456 1456 1457 1457 1458 1459 1459 1458 1458 1459 1460 1460 1460 1461 1460 1460 1460 1461 1459 1460 1460 1461 1462 1462 1463 1463 1463 1463 1463 1464 1464 1464 1464
1445 1446 1447 1447 1448 1449 1449 1450 1450 1450 1451 1452 1452 1452 1454 1454 1455 1455 1455 1454 1454 1454 1454 1453 1452 1453 1453 1454 1455 1455 1456 1456 1456 1456 1456 1456 1456 1456
1439 1440 1441 1441 1442 1443 1443 1443 1443 1443 1444 1445 1445 1446 1447 1448 1448 1449 1448 1448 1446 1446 1448 1447 1446 1446 1446 1446 1447 1448 1448 1449 1449 1448 1448 1448 1448 1448
1433 1434 1434 1435 1436 1436 1436 1436 1435 1436 1437 1437 1438 1439 1439 1440 1441 1441 1441 1441 1440 1439 1440 1441 1440 1440 1438 1438 1440 1440 1441 1441 1441 1441 1441 1441 1441 1440
1427 1427 1428 1429 1429 1430 1429 1429 1429 1430 1430 1430 1430 1431 1431 1432 1433 1434 1434 1434 1433 1433 1434 1435 1434 1434 1434 1431 1431 1433 1433 1433 1433 1432 1432 1433 1433 1432
1421 1421 1422 1422 1423 1423 1423 1422 1423 1424 1424 1423 1423 1423 1424 1424 1425 1426 1426 1427 1427 1427 1427 1428 1427 1427 1426 1425 1424 1424 1425 1425 1425 1424 1424 1424 1424 1424
1415 1416 1416 1416 1416 1416 1416 1417 1417 1417 1416 1416 1416 1416 1417 1418 1418 1419 1419 1419 1420 1420 1420 1421 1421 1421 1420 1419 1417 1417 1416 1416 1417 1417 1416 1416 1416 1416
1410 1409 1409 1409 1409 1409 1409 1410 1410 1410 1410 1410 1410 1411 1411 1412 1412 1411 1411 1412 1412 1412 1413 1414 1414 1414 1413 1412 1412 1410 1410 1409 1409 1409 1409 1408 1408 1408
1404 1404 1403 1403 1402 1402 1403 1403 1404 1404 1404 1404 1404 1404 1405 1405 1405 1405 1405 1405 1405 1405 1405 1406 1407 1407 1407 1406 1405 1403 1403 1402 1402 1402 1401 1399 1399 1399
1399 1398 1397 1397 1397 1397 1397 1397 1397 1398 1398 1398 1398 1398 1398 1398 1398 1398 1399 1398 1398 1398 1399 1399 1399 1399 1399 1399 1399 1397 1396 1395 1395 1395 1394 1393 1390 1391
1394 1392 1392 1392 1392 1392 1392 1392 1392 1392 1392 1392 1392 1392 1392 1392 1392 1392 1392 1392 1392 1392 1392 1393 1393 1392 1392 1390 1389 1392 1391 1389 1388 1388 1387 1387 1384 1383
1388 1388 1387 1387 1387 1387 1387 1387 1387 1387 1387 1387 1387 1387 1387 1387 1387 1386 1386 1386 1386 1386 1386 1386 1387 1387 1386 1385 1383 1383 1384 1383 1382 1381 1380 1379 1378 1377
1383 1383 1383 1383 1383 1382 1382 1382 1382 1382 1382 1382 1381 1381 1381 1381 1381 1381 1381 1381 1381 1381 1380 1380 1381 1382 1381 1380 1379 1376 1377 1378 1377 1376 1374 1373 1371 1369
1379 1379 1378 1378 1378 1377 1377 1377 1377 1377 1376 1376 1376 1376 1376 1376 1376 1376 1376 1376 1375 1375 1375 1375 1375 1375 1375 1374 1373 1372 1371 1371 1371 1370 1370 1368 1366 1363
1375 1374 1374 1374 1373 1373 1372 1372 1372 1371 1371 1371 1371 1371 1371 1371 1371 1371 1371 1371 1371 1370 1370 1370 1370 1370 1370 1370 1369 1367 1366 1365 1364 1363 1362 1362 1361 1360